Terug naar catalogus

COSMOS 1867 COOLANT

ActiefLEO
NORAD 43325·DEBRIS·🇷🇺 Russia

Gelanceerd Jul 10, 1987 vanaf Baikonur Cosmodrome

Loading…

Volgende Passages (komende 24 uur)

TLE

VerouderendSource: Space-Track

Epoch: Sep 11, 2026, 21:18 UTC

1 43325U 87060AS  26254.88770537  .00000207  00000-0  10716-3 0  9999
2 43325  65.0086 115.2651 0019260 276.9769  82.9126 14.35271286611004

Volg COSMOS 1867 COOLANT in realtime met AllMySat

Download on the App Store